Location: Falkner
(32.6954°N, 86.0502°W)
Time: 11:38:21
(UTC+00:00)

OAO 3 Rocket - Pass Details

Date: 29 October 2020
Orbit: 629 x 682 km, 35.0° (Epoch: 04 December)

Event Time Altitude Azimuth Distance (km) Brightness Sun altitude
Rises 23:21:27 0° 284° (WNW) 2,994 7.9 -6.1°
Reaches altitude 10° 23:23:51 10° 282° (WNW) 2,072 7.0 -6.6°
Maximum altitude 23:28:39 66° 200° (SSW) 710 3.5 -7.6°
Drops below altitude 10° 23:33:21 10° 119° (ESE) 2,032 5.3 -8.6°
Enters shadow 23:34:31 - 117° (ESE) 2,478 5.7 -8.8°
